Weather History for Boise, ID

Change the Weather History Date:

Saturday, November 30, 2013

  Actual Average Record
Temperature  
Mean Temperature 38 °F 34 °F  
Max Temperature 44 °F 41 °F 61 °F (1950)
Min Temperature 32 °F 27 °F -1 °F (1896)
Degree Days  
Heating Degree Days 27 31  
Month to date heating degree days 751 749  
Since 1 July heating degree days 1294 1254  
Cooling Degree Days 0 0  
Month to date cooling degree days 0 0  
Year to date cooling degree days 1320 942  
Moisture  
Dew Point 34 °F    
Average Humidity 83    
Maximum Humidity 100    
Minimum Humidity 65    
Precipitation  
Precipitation T in 0.05 in 0.80 in (1896)
Month to date precipitation 1.49 1.35  
Year to date precipitation 8.91 10.18  
Snow  
Snow 0.00 in 0.20 in 2.10 in (2010)
Month to date snowfall 2.0 2.6  
Since 1 July snowfall 2.0 2.7  
Snow Depth 0.00 in    
Sea Level Pressure  
Sea Level Pressure 30.35 in    
Wind  
Wind Speed 1 mph (West)    
Max Wind Speed 6 mph    
Max Gust Speed 8 mph    
Visibility 4 miles    
Events Rain    
T = Trace of Precipitation, MM = Missing Value Source: NWS Daily Summary

Daily Weather History Graph

Daily Weather History Graph

Search for Another Location

Airport:

Trip Planner

Search our weather history database for the weather conditions in past years. The results will help you decide how hot, cold, wet, or windy it might be!

Date:

Astronomy

Nov. 30, 2013 Rise Set
Actual Time 7:57 AM MST 5:09 PM MST
Civil Twilight 7:25 AM MST 5:41 PM MST
Nautical Twilight 6:49 AM MST 6:17 PM MST
Astronomical Twilight 6:15 AM MST 6:52 PM MST
Moon 5:09 AM MST (11/30) 3:40 PM MST (11/30)
Length of Visible Light 10h 16m
Length of Day
9h 12m
Waning Crescent, 7% of the Moon is Illuminated
Nov 30
Waning Crescent
Dec 2
New
Dec 9
First Quarter
Dec 17
Full
Dec 25
Last Quarter

Hourly Weather History & Observations

Time (MST) Temp. Windchill Dew Point Humidity Pressure Visibility Wind Dir Wind Speed Gust Speed Precip Events Conditions
12:53 AM 32.0 °F - 30.9 °F 96% 30.32 in 3.0 mi Calm Calm - N/A   Scattered Clouds
1:53 AM 33.1 °F - 30.9 °F 92% 30.33 in 4.0 mi Calm Calm - N/A   Overcast
2:53 AM 34.0 °F - 30.9 °F 89% 30.32 in 4.0 mi Calm Calm - N/A   Overcast
3:53 AM 34.0 °F - 30.9 °F 89% 30.32 in 4.0 mi Calm Calm - N/A   Overcast
4:53 AM 34.0 °F - 32.0 °F 92% 30.32 in 4.0 mi Calm Calm - N/A   Overcast
5:53 AM 33.1 °F 30.0 °F 30.9 °F 92% 30.33 in 4.0 mi SE 3.5 mph - N/A   Overcast
6:53 AM 32.0 °F - 30.9 °F 96% 30.35 in 4.0 mi Calm Calm - N/A   Overcast
7:53 AM 34.0 °F - 30.9 °F 89% 30.37 in 4.0 mi Calm Calm - N/A   Overcast
8:53 AM 35.1 °F 32.2 °F 32.0 °F 89% 30.37 in 3.0 mi SSE 3.5 mph - N/A   Overcast
9:53 AM 37.9 °F - 33.1 °F 83% 30.38 in 5.0 mi Calm Calm - N/A   Haze
10:53 AM 39.0 °F - 33.1 °F 79% 30.38 in 5.0 mi Calm Calm - N/A   Haze
11:53 AM 41.0 °F - 34.0 °F 76% 30.38 in 4.0 mi Calm Calm - N/A   Haze
12:53 PM 42.1 °F - 34.0 °F 73% 30.35 in 5.0 mi Calm Calm - N/A   Haze
1:53 PM 44.1 °F 42.5 °F 34.0 °F 68% 30.33 in 4.0 mi West 3.5 mph - N/A   Haze
2:53 PM 43.0 °F 41.3 °F 35.1 °F 74% 30.34 in 4.0 mi NNW 3.5 mph - 0.00 in Rain Light Rain
3:53 PM 43.0 °F - 35.1 °F 74% 30.34 in 4.0 mi Calm Calm - 0.00 in   Haze
4:53 PM 42.1 °F - 36.0 °F 79% 30.33 in 4.0 mi Calm Calm - N/A   Haze
5:53 PM 41.0 °F 39.0 °F 37.0 °F 86% 30.36 in 4.0 mi NW 3.5 mph - N/A   Overcast
6:53 PM 41.0 °F 39.0 °F 37.0 °F 86% 30.36 in 4.0 mi West 3.5 mph - N/A   Overcast
7:53 PM 39.0 °F - 36.0 °F 89% 30.35 in 4.0 mi Calm Calm - N/A   Overcast
8:53 PM 37.0 °F - 36.0 °F 96% 30.35 in 3.0 mi Calm Calm - N/A   Overcast
9:53 PM 36.0 °F - 35.1 °F 97% 30.36 in 3.0 mi Calm Calm - N/A   Overcast
10:53 PM 36.0 °F - 35.1 °F 97% 30.35 in 3.0 mi Calm Calm - N/A   Overcast
11:53 PM 37.9 °F - 36.0 °F 93% 30.36 in 3.0 mi Calm Calm - N/A   Overcast